TimeEDT,TemperatureF,Dew PointF,Humidity,Sea Level PressureIn,VisibilityMPH,Wind Direction,Wind SpeedMPH,Gust SpeedMPH,PrecipitationIn,Events,Conditions,WindDirDegrees,DateUTC
12:53 AM,70.0,68.0,93,30.15,10.0,Calm,Calm,-,N/A,,Scattered Clouds,0,2013-08-19 04:53:00
1:38 AM,69.8,68.0,94,30.18,10.0,Calm,Calm,-,N/A,,Overcast,0,2013-08-19 05:38:00
1:53 AM,69.1,68.0,96,30.13,10.0,Calm,Calm,-,N/A,,Overcast,0,2013-08-19 05:53:00
2:53 AM,70.0,68.0,93,30.12,10.0,Calm,Calm,-,N/A,,Overcast,0,2013-08-19 06:53:00
3:20 AM,69.8,68.0,94,30.16,10.0,Calm,Calm,-,N/A,,Overcast,0,2013-08-19 07:20:00
3:53 AM,69.1,68.0,96,30.12,10.0,Calm,Calm,-,N/A,,Overcast,0,2013-08-19 07:53:00
4:53 AM,69.1,68.0,96,30.13,10.0,Calm,Calm,-,0.00,,Overcast,0,2013-08-19 08:53:00
5:53 AM,69.1,68.0,96,30.11,5.0,Calm,Calm,-,0.00,,Overcast,0,2013-08-19 09:53:00
6:12 AM,69.8,68.0,94,30.15,10.0,Calm,Calm,-,0.00,,Overcast,0,2013-08-19 10:12:00
6:23 AM,69.8,68.0,94,30.15,10.0,Calm,Calm,-,0.00,,Overcast,0,2013-08-19 10:23:00
6:53 AM,69.1,68.0,96,30.12,10.0,Calm,Calm,-,0.00,,Overcast,0,2013-08-19 10:53:00
7:16 AM,69.8,68.0,94,30.17,10.0,Calm,Calm,-,N/A,,Overcast,0,2013-08-19 11:16:00
7:29 AM,69.8,68.0,94,30.17,10.0,Calm,Calm,-,N/A,,Overcast,0,2013-08-19 11:29:00
7:39 AM,69.8,68.0,94,30.17,10.0,Calm,Calm,-,N/A,,Overcast,0,2013-08-19 11:39:00
7:53 AM,69.1,68.0,96,30.14,10.0,Calm,Calm,-,N/A,,Overcast,0,2013-08-19 11:53:00
8:01 AM,69.8,66.2,88,30.17,10.0,Calm,Calm,-,N/A,,Overcast,0,2013-08-19 12:01:00
8:21 AM,69.8,68.0,94,30.17,10.0,Calm,Calm,-,N/A,,Mostly Cloudy,0,2013-08-19 12:21:00
8:34 AM,69.8,68.0,94,30.17,10.0,Calm,Calm,-,N/A,,Overcast,0,2013-08-19 12:34:00
8:53 AM,71.1,68.0,90,30.13,10.0,Calm,Calm,-,N/A,,Overcast,0,2013-08-19 12:53:00
9:27 AM,71.6,68.0,88,30.17,10.0,Calm,Calm,-,N/A,,Overcast,0,2013-08-19 13:27:00
9:53 AM,73.9,68.0,82,30.13,10.0,Calm,Calm,-,N/A,,Overcast,0,2013-08-19 13:53:00
10:02 AM,73.4,66.2,78,30.16,10.0,Calm,Calm,-,N/A,,Overcast,0,2013-08-19 14:02:00
10:11 AM,73.4,66.2,78,30.16,10.0,Calm,Calm,-,N/A,,Overcast,0,2013-08-19 14:11:00
10:53 AM,75.0,66.9,76,30.14,10.0,Calm,Calm,-,N/A,,Overcast,0,2013-08-19 14:53:00
11:53 AM,77.0,66.0,69,30.14,10.0,Calm,Calm,-,N/A,,Overcast,0,2013-08-19 15:53:00
12:53 PM,75.9,68.0,76,30.14,10.0,West,6.9,-,0.00,Rain,Light Rain,280,2013-08-19 16:53:00
1:07 PM,75.2,68.0,78,30.17,10.0,West,3.5,-,0.00,,Overcast,270,2013-08-19 17:07:00
1:53 PM,75.9,69.1,79,30.13,10.0,Calm,Calm,-,0.01,,Overcast,0,2013-08-19 17:53:00
2:53 PM,77.0,66.9,71,30.11,10.0,Calm,Calm,-,0.00,,Overcast,0,2013-08-19 18:53:00
3:23 PM,77.0,69.8,78,30.14,10.0,Calm,Calm,-,0.00,Rain,Light Rain,0,2013-08-19 19:23:00
3:53 PM,77.0,68.0,74,30.09,10.0,Calm,Calm,-,0.00,,Overcast,0,2013-08-19 19:53:00
4:43 PM,77.0,69.8,78,30.12,10.0,West,3.5,-,N/A,,Overcast,260,2013-08-19 20:43:00
4:53 PM,79.0,69.1,72,30.08,10.0,WNW,3.5,-,N/A,,Overcast,300,2013-08-19 20:53:00
5:53 PM,77.0,68.0,74,30.07,10.0,Calm,Calm,-,N/A,,Overcast,0,2013-08-19 21:53:00
6:53 PM,77.0,66.9,71,30.06,10.0,Calm,Calm,-,N/A,,Mostly Cloudy,0,2013-08-19 22:53:00
7:53 PM,75.0,69.1,82,30.07,10.0,Calm,Calm,-,N/A,,Clear,0,2013-08-19 23:53:00
8:53 PM,73.0,70.0,90,30.08,10.0,Calm,Calm,-,N/A,,Scattered Clouds,0,2013-08-20 00:53:00
9:53 PM,72.0,69.1,91,30.09,10.0,Calm,Calm,-,N/A,,Mostly Cloudy,0,2013-08-20 01:53:00
10:53 PM,71.1,68.0,90,30.10,10.0,Calm,Calm,-,N/A,,Mostly Cloudy,0,2013-08-20 02:53:00
11:53 PM,70.0,68.0,93,30.11,10.0,Calm,Calm,-,N/A,,Mostly Cloudy,0,2013-08-20 03:53:00